Regional Weather Roundup
Issued by NWS Northern Indiana

Home | Current Version | Previous Version | Graphics & Text | Print | Product List | Glossary On
Versions: 1 2 3 4 5 6 7 8 9 10 11 12 13 14 15 16 17 18 19 20 21 22 23 24 25 26 27 28 29 30 31 32 33 34 35 36 37 38 39 40 41 42 43 44 45 46 47 48 49 50
000
ASUS43 KIWX 260110
RWRIWX

KIWX WEATHER ROUNDUP
NATIONAL WEATHER SERVICE NORTHERN INDIANA
900 PM EDT MON JUL 25 2016

NOTE: "FAIR" INDICATES FEW OR NO CLOUDS BELOW 12,000 FEET WITH NO
SIGNIFICANT WEATHER AND/OR OBSTRUCTIONS TO VISIBILITY.

* THESE STATIONS ARE NOT UNDER NWS QUALITY CONTROL. THEY ALSO MAY NOT
  REPORT WEATHER SUCH AS PRECIPITATION OR FOG.

INZ001>027-260200-
NORTHERN INDIANA

CITY           SKY/WX    TMP DP  RH WIND       PRES   REMARKS
GARY*          MOCLDY    79  64  61 E5        29.99S
VALPARAISO     MOCLDY    76  71  85 CALM      30.01R
MICHIGAN CITY* CLOUDY    77  64  65 CALM      30.00S
LAPORTE*       MOCLDY    78  65  63 CALM      30.01S
KNOX*          MOCLDY    73  66  78 CALM      30.00R
SOUTH BEND     CLEAR     76  63  64 N5        30.01R
GOSHEN         PTCLDY    77  61  57 NW7       30.00R
MONTICELLO*    CLOUDY    76  64  66 CALM      30.00R
LOGANSPORT*    CLOUDY    72  66  83 N5        30.01S
ROCHESTER*     CLOUDY    77  68  73 CALM      30.01R
WARSAW*        CLOUDY    75  63  64 NW5       30.00S
ANGOLA*        CLEAR     79  72  78 NW5       29.99R
FORT WAYNE     MOCLDY    77  65  66 W6        29.99R
HUNTINGTON*    PTCLDY    77  65  66 NW5       29.99S
PERU/GRISSOM   CLOUDY    79  68  69 N5        29.99R
MARION*        PTCLDY    77  69  75 NW3       30.01R

$$
INZ028>050-260200-
CENTRAL INDIANA

CITY           SKY/WX    TMP DP  RH WIND       PRES   REMARKS
LAFAYETTE      PTCLDY    78  71  79 NE5       29.99R
KOKOMO*        MOCLDY    79  70  73 N5        30.00R
MUNCIE*        PTCLDY    78  71  79 NW6       30.00R
INDIANAPOLIS   CLOUDY    82  71  69 NW6       29.99R

$$
MIZ043>046-050>051-056>058-064>065-071>073-077>080-260200-
SOUTHWEST LOWER MICHIGAN

CITY           SKY/WX    TMP DP  RH WIND       PRES   REMARKS
BATTLE CREEK   CLEAR     73  62  68 W8        30.01R
BENTON HARBOR  CLEAR     73  64  73 CALM      30.00R
COLDWATER*     CLEAR     75  64  67 W5        29.99S
HILLSDALE*     CLEAR     75  65  69 W6        29.99R
HOLLAND        CLEAR     73  66  78 W6        30.01R
GRAND RAPIDS   PTCLDY    78  62  57 W9        29.99R
KALAMAZOO      CLEAR     76  61  59 W7        30.01R
STURGIS*       CLOUDY    74  62  65 N6        29.99S
THREE RIVERS*  FAIR      76  61  59 NW6       30.01R

$$
OHZ001>008-015>018-024>025-260200-
NORTHWEST OHIO

CITY           SKY/WX    TMP DP  RH WIND       PRES   REMARKS
DEFIANCE       CLOUDY    82  64  54 W5        29.96R
FINDLAY        PTCLDY    82  66  58 W5        29.96R
TOLEDO EXPRESS CLEAR     81  68  64 W7        29.95R
TOLEDO METCALF CLEAR     83  67  58 W9        29.96R
LIMA           PTCLDY    79  72  79 W8        29.98R

$$
AND FOR LAKE MICHIGAN COASTAL AND OPEN LAKE BUOY OBSERVATIONS

STATION/POSITION TEMP    WIND        PRES    VSBY  WAVE
                 AIR SEA DIR/SP/G                  HT/PER
                 (F)     (DEG/KT/KT) (MB)    (MI)  (FT/S)
CALUMET HARBOR    76                   N/A
MICHIGAN CITY     78      20/  6/  6   N/A
BURNS HARBOR      79      80/  6/ 11 1015.9S
SAINT JOSEPH      80      10/  1/  2 1016.9S
SOUTH LAKE BUOY   75 75  190/  4/  4 1015.0R         1
4 MI NW BRIDGMAN  78 78   40/  4/  6 1015.3R         1/ 4
MICHIGAN CITY     77 76   50/  4/  6   N/A           1

$$
&&




USA.gov is the U.S. government's official web portal to all federal, state and local government web resources and services.